Tracking 22879 objects as of 21-Apr-2021
HD Live streaming from Space Station
objects crossing your sky now

DELTA 1 DEB

Track DELTA 1 DEB now!
10-day predictions


NORAD ID: 7036
Int'l Code: 1973-086AC
Perigee: 1,441.6 km
Apogee: 1,481.3 km
Inclination: 101.4 °
Period: 115.0 minutes
Semi major axis: 7832 km
RCS: 0.0934 m2 (small)
Launch date: November 6, 1973
Source: United States (US)
Launch site: AIR FORCE WESTERN TEST RANGE (AFWTR)

Note: This is SATELLITE DEBRIS
aabbcc
Your satellite tracking list
Your tracking list is empty




NASA's NSSDC Master Catalog

Two Line Element Set (TLE):
1 07036U 73086AC  21111.56213654  .00000233  00000-0  17553-2 0  9999
2 07036 101.4452 115.2675 0025306 317.4387 155.8962 12.52440338161209
Source of the keplerian elements: AFSPC